Location: Göttingen
(51.5413°N, 9.9158°E)
Time: 23:46:36
(UTC+02:00)

Tiros 1 despin weight - Pass Details

Date: 26 May 2022
Orbit: 591 x 639 km, 48.2° (Epoch: 02 July)

Event Time Altitude Azimuth Distance (km) Brightness Sun altitude
Rises 22:54:23 0° 270° (W) 2,850 ? -10.8°
Reaches altitude 10° 22:56:43 10° 265° (W) 1,939 ? -11.0°
Maximum altitude 23:01:01 51° 191° (S) 752 ? -11.3°
Enters shadow 23:04:51 13° 116° (ESE) 1,753 ? -11.6°
